GW6749 Weather Reports


time (UTC)temp
C
wind
direction
speed
KPH
gust
KPH
rain 1hr
cm
rain 24hr
cm
rain mn
cm
humidity
%
barometer
mb
20260504081524 1 272 0.0 0.0 0.00 0.00 0.00 89 1012.1
20260504050021 2 273 0.0 0.0 0.00 0.00 0.00 85 1011.8
20260504044520 3 273 0.0 1.6 0.00 0.00 0.00 84 1011.7
20260504043027 2 273 0.0 0.0 0.00 0.00 0.00 88 1011.6
20260504041532 2 273 0.0 0.0 0.00 0.00 0.00 88 1011.5
20260504040026 2 273 0.0 0.0 0.00 0.00 0.00 87 1011.4
20260504034518 2 273 0.0 0.0 0.00 0.00 0.00 86 1011.3
20260504033020 3 273 0.0 0.0 0.00 0.00 0.00 85 1011.2
20260504031524 3 273 0.0 0.0 0.00 0.00 0.00 84 1011.3
20260504030026 3 273 0.0 0.0 0.00 0.00 0.00 82 1011.3
20260504024528 3 273 0.0 0.0 0.00 0.00 0.00 80 1011.4
20260504023014 3 273 0.0 0.0 0.00 0.00 0.00 80 1011.5
20260504021518 3 273 0.0 0.0 0.00 0.00 0.00 80 1011.5
20260504020023 4 273 0.0 0.0 0.00 0.00 0.00 78 1011.5
20260504014528 5 273 0.0 0.0 0.00 0.00 0.00 76 1011.5
20260504013030 5 273 0.0 0.0 0.00 0.00 0.00 73 1011.5
20260504011534 6 273 0.0 0.0 0.00 0.00 0.00 70 1011.4
20260504010019 7 273 0.0 0.0 0.00 0.00 0.00 66 1011.2
20260504004524 8 273 0.0 0.0 0.00 0.00 0.00 60 1011.1
20260504003029 10 273 0.0 0.0 0.00 0.00 0.00 53 1011.0
20260504001532 11 273 0.0 4.8 0.00 0.00 0.00 46 1010.8
20260504000027 12 333 0.0 12.9 0.00 0.00 0.00 43 1010.7
20260503234524 12 344 3.2 14.5 0.00 0.00 0.00 42 1010.6
20260503233035 13 335 3.2 17.7 0.00 0.00 0.00 40 1010.4
20260503231533 13 315 11.3 29.0 0.00 0.00 0.00 39 1010.4
20260503230030 13 329 3.2 14.5 0.00 0.00 0.00 37 1010.1
20260503224528 13 340 1.6 17.7 0.00 0.00 0.00 37 1009.9
20260503223022 14 355 3.2 14.5 0.00 0.00 0.00 37 1009.8
20260503221529 14 331 3.2 14.5 0.00 0.00 0.00 35 1009.7
20260503220028 15 338 6.4 14.5 0.00 0.00 0.00 34 1009.7
20260503214530 15 259 6.4 16.1 0.00 0.00 0.00 33 1009.7
20260503213033 14 313 6.4 20.9 0.00 0.00 0.00 34 1009.6
20260503211524 15 242 3.2 25.7 0.00 0.00 0.00 33 1009.4
20260503210026 15 232 6.4 22.5 0.00 0.00 0.00 31 1009.6
20260503204526 15 341 8.0 24.1 0.00 0.00 0.00 31 1009.7
20260503203036 13 334 6.4 27.4 0.00 0.00 0.00 33 1009.8
20260503201528 15 331 8.0 29.0 0.00 0.00 0.00 31 1009.8
20260503200024 13 291 11.3 25.7 0.00 0.00 0.00 33 1009.7
20260503194527 13 312 8.0 20.9 0.00 0.00 0.00 34 1010.0
20260503193014 13 332 12.9 25.7 0.00 0.00 0.00 35 1010.2
20260503191518 13 310 12.9 25.7 0.00 0.00 0.00 34 1010.2
20260503190022 13 33 8.0 25.7 0.00 0.00 0.00 36 1010.4
20260503184524 13 12 9.7 24.1 0.00 0.00 0.00 35 1010.5
20260503183014 13 321 6.4 30.6 0.00 0.00 0.00 38 1010.6
20260503181514 12 323 11.3 29.0 0.00 0.00 0.00 39 1010.8
20260503180021 12 334 6.4 25.7 0.00 0.00 0.00 40 1010.7
20260503174524 11 266 9.7 20.9 0.00 0.00 0.00 40 1010.9
20260503173029 11 280 4.8 19.3 0.00 0.00 0.00 44 1011.2
20260503171511 11 313 8.0 22.5 0.00 0.00 0.00 43 1011.3